TimeCST,TemperatureF,Dew PointF,Humidity,Sea Level PressureIn,VisibilityMPH,Wind Direction,Wind SpeedMPH,Gust SpeedMPH,PrecipitationIn,Events,Conditions,WindDirDegrees,DateUTC
12:51 AM,26.1,12.9,58,30.41,10.0,North,12.7,24.2,N/A,,Scattered Clouds,350,2013-01-24 06:51:00
1:51 AM,24.1,7.0,48,30.45,10.0,North,13.8,24.2,N/A,,Partly Cloudy,10,2013-01-24 07:51:00
2:51 AM,19.9,5.0,52,30.48,10.0,North,17.3,24.2,N/A,,Partly Cloudy,360,2013-01-24 08:51:00
3:51 AM,19.0,3.9,52,30.52,10.0,North,10.4,-,N/A,,Scattered Clouds,10,2013-01-24 09:51:00
4:51 AM,17.1,5.0,59,30.54,10.0,North,10.4,-,N/A,,Scattered Clouds,360,2013-01-24 10:51:00
5:51 AM,17.1,5.0,59,30.57,10.0,NNE,9.2,-,N/A,,Mostly Cloudy,20,2013-01-24 11:51:00
6:51 AM,16.0,5.0,62,30.59,10.0,NNE,8.1,-,N/A,,Mostly Cloudy,30,2013-01-24 12:51:00
7:51 AM,17.1,6.1,62,30.60,10.0,NE,8.1,-,N/A,,Overcast,40,2013-01-24 13:51:00
8:51 AM,17.6,-0.4,45,30.58,10.0,East,11.5,-,N/A,,Overcast,80,2013-01-24 14:51:00
9:51 AM,18.0,-0.0,45,30.64,10.0,ENE,13.8,-,N/A,,Overcast,60,2013-01-24 15:51:00
10:51 AM,19.9,1.0,44,30.64,10.0,ENE,12.7,-,N/A,,Overcast,70,2013-01-24 16:51:00
11:51 AM,21.9,3.0,44,30.61,10.0,East,10.4,-,N/A,,Mostly Cloudy,80,2013-01-24 17:51:00
12:51 PM,23.0,3.9,44,30.56,10.0,East,15.0,-,N/A,,Mostly Cloudy,80,2013-01-24 18:51:00
1:51 PM,25.0,5.0,43,30.52,10.0,ESE,15.0,-,N/A,,Overcast,110,2013-01-24 19:51:00
2:51 PM,25.0,6.1,45,30.51,10.0,East,15.0,-,N/A,,Overcast,100,2013-01-24 20:51:00
3:51 PM,25.0,6.1,45,30.48,10.0,East,15.0,-,N/A,,Overcast,100,2013-01-24 21:51:00
4:51 PM,25.0,5.0,43,30.46,10.0,ESE,15.0,-,N/A,,Mostly Cloudy,120,2013-01-24 22:51:00
5:51 PM,26.1,6.1,43,30.45,10.0,ESE,12.7,-,N/A,,Mostly Cloudy,110,2013-01-24 23:51:00
6:51 PM,24.8,6.8,46,30.38,10.0,ESE,16.1,21.9,N/A,,Overcast,110,2013-01-25 00:51:00
7:51 PM,26.1,7.0,44,30.41,10.0,ESE,18.4,-,N/A,,Overcast,110,2013-01-25 01:51:00
8:51 PM,26.1,8.1,47,30.38,10.0,ESE,15.0,-,N/A,,Overcast,110,2013-01-25 02:51:00
9:51 PM,27.0,8.1,45,30.38,10.0,SE,12.7,-,N/A,,Overcast,140,2013-01-25 03:51:00
10:51 PM,27.0,8.1,45,30.32,10.0,SE,12.7,-,N/A,,Overcast,130,2013-01-25 04:51:00
11:51 PM,28.0,9.0,45,30.30,10.0,ESE,11.5,-,N/A,,Overcast,120,2013-01-25 05:51:00